パンスターズ彗星

C/2016 M1 ( PanSTARRS )

English version
Home page
Updated on November 19, 2018

---------------------------------------------------------------------

・ プロフィール

発見日 2016年6月22日
発見光度 19.7等
発見者 Pan-STARRS 1 telescope (Haleakala)

・ 写真集

・ 軌道要素

Epoch 2018 Aug. 30.0 TT = JDT 2458360.5
T 2018 Aug. 10.17445 TT                                 MPCW
q   2.2104774            (2000.0)            P               Q
z  +0.0004151      Peri.  209.82661     +0.02468511     -0.03424890
 +/-0.0000002      Node    92.20355     -0.59784981     +0.80049595
e   0.9990824      Incl.   90.99970     -0.80122796     -0.59835879
From 2757 observations 2016 June 22-2018 Sept. 7, mean residual 0".4.

・ 星図

・ 光度変化

        m1 = 7.0 + 5 logΔ +  7.5 log r  [    ,-310]  (              〜2017年10月 4日)
        m1 = 2.5 + 5 logΔ + 15.0 log r  [-310, 310]  (2017年10月 4日〜2019年 6月16日)
        m1 = 7.0 + 5 logΔ +  7.5 log r  [ 310,    ]  (2019年 6月16日〜              )

---------------------------------------------------------------------

軌道要素はM.P.E.C. 2018-S50に掲載されたものです。
星図はステラナビゲータ Ver.10 (アストロアーツ) で作成したものです。
光度グラフはComet for Windowsで作成したものです。

---------------------------------------------------------------------

Copyright(C) Seiichi Yoshida (comet@aerith.net). All rights reserved.